This is the latest recevied weather packets stored in our database for station/object SQ5JP-4. If no packets are shown the sender has not sent any weather packets the latest 10 day(s).
| Time | Temp. | Humidity | Pressure | Rain* | Wind** | Luminosity | Snow |
|---|---|---|---|---|---|---|---|
| 1787863721 | 11.67° C | 100% | 1004.7 hPa | - | - | - | - |
| 1787862821 | 12.22° C | 100% | 1004.8 hPa | - | - | - | - |
| 1787861929 | 12.22° C | 100% | 1004.7 hPa | - | - | - | - |
| 1787861021 | 12.22° C | 100% | 1004.9 hPa | - | - | - | - |
| 1787860121 | 12.78° C | 100% | 1004.9 hPa | - | - | - | - |
| 1787859220 | 12.78° C | 100% | 1004.9 hPa | - | - | - | - |
| 1787857423 | 13.33° C | 100% | 1005.1 hPa | - | - | - | - |
| 1787856523 | 13.89° C | 100% | 1005.2 hPa | - | - | - | - |
| 1787855623 | 14.44° C | 100% | 1005.2 hPa | - | - | - | - |
| 1787854723 | 15° C | 100% | 1005.6 hPa | - | - | - | - |
| 1787853823 | 15.56° C | 100% | 1005.2 hPa | - | - | - | - |
| 1787852922 | 16.11° C | 100% | 1005.2 hPa | - | - | - | - |
| 1787852022 | 17.22° C | 100% | 1005.2 hPa | - | - | - | - |
| 1787851122 | 18.89° C | 100% | 1005.1 hPa | - | - | - | - |
| 1787850222 | 20° C | 100% | 1005.1 hPa | - | - | - | - |
| 1787849322 | 20.56° C | 100% | 1005 hPa | - | - | - | - |
| 1787848422 | 22.78° C | 100% | 1005 hPa | - | - | - | - |
| 1787847522 | 21.67° C | 100% | 1005.1 hPa | - | - | - | - |
| 1787846622 | 21.67° C | 100% | 1005.1 hPa | - | - | - | - |
| 1787845721 | 22.22° C | 93% | 1005.2 hPa | - | - | - | - |
| 1787844821 | 22.22° C | 98% | 1005.2 hPa | - | - | - | - |
| 1787843921 | 22.78° C | 100% | 1005.3 hPa | - | - | - | - |
| 1787843021 | 23.33° C | 87% | 1005.2 hPa | - | - | - | - |
| 1787842121 | 24.44° C | 92% | 1005.3 hPa | - | - | - | - |
| 1787841221 | 27.22° C | 61% | 1005.3 hPa | - | - | - | - |
* Rain since midnight (hover to see other rain measurements)
** Current wind speed in m/s (hover to see current wind gust speed)